{"data":{"norad_id":59656,"intl_designator":"2024-084C","name":"STARLINK-31912","alt_names":[],"object_type":"PAYLOAD","status":"ACTIVE","operator":null,"country":"US","launch_date":"2024-05-06","launch_site_code":"AFETR","launch_vehicle":null,"mission":null,"orbit_class":"UNKNOWN","rcs_meters":null,"size_class":null,"mass_kg":null,"dimensions":null,"purposes":["comms"],"wikipedia_slug":null,"has_3d_model":false,"image_url":null,"decayed_at":null,"tle_current":{"epoch":"2026-05-24T21:12:16.236000Z","epoch_age_seconds":84416,"freshness":"FRESH","line1":"1 59656U 24084C   26144.88352125  .00001173  00000+0  52156-4 0  9994","line2":"2 59656  43.0006 331.7029 0001148 264.4532  95.6189 15.27577917116020","mean_motion":15.27577917,"eccentricity":0.0001148,"inclination_deg":43.0006,"raan_deg":331.7029,"arg_perigee_deg":264.4532,"mean_anomaly_deg":95.6189,"bstar":5.2156e-5,"rev_number":11602,"period_min":94.266877255466,"perigee_km":482.26766841823,"apogee_km":483.84299817796,"semimajor_km":6861.1923332981,"source":"CELESTRAK","updated_at":"2026-05-25T13:38:19.017789Z"}}}